{"data":{"norad_id":53981,"intl_designator":"2022-125T","name":"STARLINK-5149","alt_names":[],"object_type":"PAYLOAD","status":"ACTIVE","operator":null,"country":"US","launch_date":"2022-10-05","launch_site_code":"AFWTR","launch_vehicle":null,"mission":null,"orbit_class":"UNKNOWN","rcs_meters":null,"size_class":null,"mass_kg":null,"dimensions":null,"purposes":["comms"],"wikipedia_slug":null,"has_3d_model":false,"image_url":null,"decayed_at":null,"tle_current":{"epoch":"2026-05-24T21:56:27.305088Z","epoch_age_seconds":93046,"freshness":"FRESH","line1":"1 53981U 22125T   26144.91420492 -.00000528  00000+0 -15090-4 0  9991","line2":"2 53981  53.2136 221.7118 0001282  90.1219 269.9920 15.08833882201113","mean_motion":15.08833882,"eccentricity":0.0001282,"inclination_deg":53.2136,"raan_deg":221.7118,"arg_perigee_deg":90.1219,"mean_anomaly_deg":269.992,"bstar":-1.509e-5,"rev_number":20111,"period_min":95.437941656721,"perigee_km":538.8752146425,"apogee_km":540.648963969,"semimajor_km":6917.8990893057,"source":"CELESTRAK","updated_at":"2026-05-25T13:38:17.620346Z"}}}